Hourly Weather Roundup
Issued by NWS Central Illinois

Home | Current Version | Previous Version | Text Only | Print | Product List | Glossary On
Versions: 1 2 3 4 5 6 7 8 9 10 11 12 13 14 15 16 17 18 19 20 21 22 23 24 25 26 27 28 29 30 31 32 33 34 35 36 37 38 39 40 41 42 43 44 45 46 47 48 49 50
000
NZUS43 KILX 210110
HWRILX

Area Weather Roundup
National Weather Service Lincoln IL
800 PM CDT WED SEP 20 2017

NOTE:  "FAIR" indicates few or no clouds below 12,000 feet, with
       no sigificant weather and/or obstructions to visibility.


CITY           SKY/WX    TMP DP  RH WIND       PRES   REMARKS
Bloomington    CLEAR     81  69  67 S12       29.89S HX  84
Champaign      CLEAR     82  66  58 S8        29.92R HX  84
Danville       CLEAR     79  68  69 SE6       29.91R HX  81
Decatur        CLEAR     83  67  58 S10       29.90S HX  85
Effingham      CLEAR     82  68  62 SE5       29.94S HX  85
Flora          CLEAR     80  71  71 S5        29.94R HX  84
Galesburg      CLEAR     81  68  65 SE5       29.84R HX  83
Jacksonville   CLEAR     84  69  60 SE7       29.86S HX  88
Lacon          CLEAR     82  68  62 S9        29.84R HAZE    HX  85
Lawrenceville  CLEAR     78  72  81 S8        29.95R HX  80
Litchfield     CLEAR     81  70  68 SE9       29.90S HX  85
$$


CITY           SKY/WX    TMP DP  RH WIND       PRES   REMARKS
Lincoln        CLEAR     83  70  63 S8        29.87R HX  87
Macomb         CLEAR     82  69  62 S5        29.85S HX  85
Mattoon        CLEAR     81  69  67 S7        29.92R HX  84
Mt Carmel AP   CLEAR     78  70  75 S7        29.96R HX  80
Olney-Noble AP CLEAR     81  73  78 SE6       29.95R HX  86
Paris AP       CLEAR     77  69  76 S5        29.94S
Peoria         CLEAR     84  69  60 S10       29.85R HX  88
Pontiac        CLEAR     81  71  71 S6        29.88R HX  85
Rantoul        CLEAR     81  70  70 S8        29.91S HX  84
Robinson       CLEAR     78  70  76 S6        29.95R
Springfield    CLEAR     86  70  58 S9        29.87S HX  90
Taylorville    CLEAR     82  68  64 S8        29.90R HX  84
$$

...REGIONAL REPORTS...


CITY           SKY/WX    TMP DP  RH WIND       PRES   REMARKS
Chicago O`Hare PTCLDY    84  66  54 S10       29.85R HX  86
Kankakee       CLEAR     82  67  61 S8        29.89S HX  84
Moline         CLOUDY    86  69  56 NW9       29.83R THUNDER HX  90
Mount Sterling CLEAR     82  69  66 S7        29.84S HX  85
Mount Vernon     N/A     75  71  87 CALM      29.94R
Pittsfield     CLEAR     81  71  71 S6        29.87S HX  85
Quincy         CLEAR     84  65  52 S7        29.83F HX  86
Rockford       CLOUDY    78  67  68 S6        29.85R HX  80
$$


CITY           SKY/WX    TMP DP  RH WIND       PRES   REMARKS
Burlington     CLOUDY    84  71  65 S7        29.82R HX  89
Cedar Rapids   CLOUDY    80  71  74 W8        29.80R HX  84
Des Moines     PTCLDY    78  61  55 N5        29.82S HX  80
Kirksville     MOCLDY    83  72  69 SW5       29.85R THUNDER HX  88
Ottumwa        MOCLDY    82  71  69 SW5       29.81S HX  86
St Louis       CLEAR     89  69  51 S10       29.88S HX  93
$$


CITY           SKY/WX    TMP DP  RH WIND       PRES   REMARKS
Terre Haute    CLEAR     78  66  66 SE6       29.94S HX  80
Evansville     CLEAR     78  70  76 CALM      29.97R HX  80
Indianapolis   PTCLDY    81  69  67 S8        29.97S HX  84
Lafayette      CLEAR     80  68  66 S3        29.93R HX  83
Madison        CLOUDY    83  72  69 S7        29.80S THUNDER HX  88
Milwaukee      PTCLDY    80  69  69 S6        29.83R HX  83
$$





USA.gov is the U.S. government's official web portal to all federal, state and local government web resources and services.